Elizabethton, TN

5:09 AM EDT on May 27, 2018 (GMT -0400)
Elizabethton

Weather History for K0A9 - July, 2013

Change the Weather History Date:

Thursday, July 11, 2013

  Actual Average (KTRI) Record (KTRI)
Temperature  
Mean Temperature 73 °F -  
Max Temperature 80 °F 86 °F 95 °F (1988)
Min Temperature 66 °F 65 °F 50 °F (1963)
Cooling Degree Days 8    
Growing Degree Days 23 (Base 50)    
Moisture  
Dew Point 67 °F    
Average Humidity 88    
Maximum Humidity 100    
Minimum Humidity 65    
Precipitation  
Precipitation 0.00 in - - ()
Sea Level Pressure  
Sea Level Pressure 30.00 in    
Wind  
Wind Speed 1 mph (WNW)    
Max Wind Speed 7 mph    
Max Gust Speed -    
Visibility 10 miles    
Events Rain    
Averages and records for this station are not official NWS values.
T = Trace of Precipitation, MM = Missing Value Source: NWS Daily Summary

Daily Weather History Graph

Daily Weather History Graph

Search for Another Location

Airport or City:

Astronomy

Jul. 11, 2013 Rise Set
Actual Time 6:20 AM EDT 8:48 PM EDT
Civil Twilight 5:50 AM EDT 9:17 PM EDT
Nautical Twilight 5:13 AM EDT 9:54 PM EDT
Astronomical Twilight 4:32 AM EDT 10:35 PM EDT
Moon 9:30 AM EDT (7/11) 10:35 PM EDT (7/11)
Length of Visible Light 15h 27m
Length of Day
14h 28m
Waxing Crescent, 10% of the Moon is Illuminated
Jul 11
Waxing Crescent
Jul 15
First Quarter
Jul 22
Full
Jul 29
Last Quarter
Aug 6
New

Hourly Weather History & Observations

Time (EDT) Temp. Heat Index Dew Point Humidity Pressure Visibility Wind Dir Wind Speed Gust Speed Precip Events Conditions
12:15 AM 66.2 °F - 66.2 °F 100% 30.01 in 10.0 mi Calm Calm - N/A Rain Light Rain
12:35 AM 66.2 °F - 66.2 °F 100% 30.02 in 10.0 mi Calm Calm - N/A   Light Drizzle
12:55 AM 66.2 °F - 66.2 °F 100% 30.02 in 10.0 mi Calm Calm - N/A   Clear
1:15 AM 66.2 °F - 66.2 °F 100% 30.01 in 7.0 mi Calm Calm - N/A   Clear
1:35 AM 66.2 °F - 66.2 °F 100% 30.02 in 10.0 mi Calm Calm - N/A   Clear
1:55 AM 66.2 °F - 66.2 °F 100% 30.01 in 10.0 mi Calm Calm - N/A   Clear
2:15 AM 66.2 °F - 66.2 °F 100% 30.01 in 7.0 mi Calm Calm - N/A   Partly Cloudy
2:35 AM 66.2 °F - 66.2 °F 100% 30.01 in 8.0 mi Calm Calm - N/A   Partly Cloudy
2:55 AM 66.2 °F - 66.2 °F 100% 30.01 in 10.0 mi Calm Calm - N/A   Clear
3:15 AM 66.2 °F - 66.2 °F 100% 30.01 in 10.0 mi Calm Calm - N/A   Clear
3:35 AM 66.2 °F - 66.2 °F 100% 30.01 in 8.0 mi Calm Calm - N/A   Clear
3:55 AM 66.2 °F - 66.2 °F 100% 30.01 in 6.0 mi Calm Calm - N/A   Scattered Clouds
4:15 AM 66.2 °F - 66.2 °F 100% 30.02 in 7.0 mi Calm Calm - N/A   Mostly Cloudy
4:35 AM 66.2 °F - 66.2 °F 100% 30.01 in 7.0 mi Calm Calm - N/A   Overcast
4:55 AM 66.2 °F - 66.2 °F 100% 30.01 in 10.0 mi Calm Calm - N/A   Overcast
5:15 AM 66.2 °F - 66.2 °F 100% 30.01 in 9.0 mi Calm Calm - N/A   Overcast
5:35 AM 66.2 °F - 66.2 °F 100% 30.01 in 9.0 mi Calm Calm - N/A   Overcast
5:55 AM 66.2 °F - 66.2 °F 100% 30.01 in 3.0 mi Calm Calm - N/A Rain Heavy Rain
6:15 AM 66.2 °F - 66.2 °F 100% 30.02 in 9.0 mi Calm Calm - N/A   Overcast
6:35 AM 66.2 °F - 66.2 °F 100% 30.02 in 10.0 mi Calm Calm - N/A   Overcast
6:55 AM 66.2 °F - 66.2 °F 100% 30.03 in 9.0 mi Calm Calm - N/A   Overcast
7:15 AM 66.2 °F - 66.2 °F 100% 30.03 in 10.0 mi Calm Calm - N/A   Overcast
7:35 AM 68.0 °F - 68.0 °F 100% 30.03 in 10.0 mi Calm Calm - N/A   Overcast
7:55 AM 68.0 °F - 68.0 °F 100% 30.04 in 10.0 mi Calm Calm - N/A   Overcast
8:15 AM 68.0 °F - 68.0 °F 100% 30.03 in 10.0 mi Calm Calm - N/A   Overcast
8:35 AM 68.0 °F - 68.0 °F 100% 30.04 in 10.0 mi Calm Calm - N/A   Overcast
8:55 AM 69.8 °F - 68.0 °F 94% 30.04 in 10.0 mi Calm Calm - N/A   Overcast
9:15 AM 69.8 °F - 68.0 °F 94% 30.04 in 10.0 mi Calm Calm - N/A   Overcast
9:35 AM 69.8 °F - 69.8 °F 100% 30.04 in 10.0 mi Calm Calm - N/A   Overcast
9:55 AM 71.6 °F - 69.8 °F 94% 30.03 in 10.0 mi Calm Calm - N/A   Overcast
10:15 AM 71.6 °F - 69.8 °F 94% 30.03 in 10.0 mi Calm Calm - N/A   Overcast
10:35 AM 73.4 °F - 69.8 °F 88% 30.02 in 10.0 mi Calm Calm - N/A   Overcast
10:55 AM 73.4 °F - 69.8 °F 88% 30.02 in 10.0 mi Calm Calm - N/A   Overcast
11:15 AM 73.4 °F - 68.0 °F 83% 30.02 in 10.0 mi Calm Calm - N/A   Mostly Cloudy
11:35 AM 73.4 °F - 68.0 °F 83% 30.02 in 10.0 mi Calm Calm - N/A   Mostly Cloudy
11:55 AM 73.4 °F - 68.0 °F 83% 30.02 in 10.0 mi Calm Calm - N/A   Mostly Cloudy
12:15 PM 75.2 °F - 69.8 °F 83% 30.02 in 10.0 mi NW 4.6 mph - N/A   Mostly Cloudy
12:35 PM 75.2 °F - 69.8 °F 83% 30.02 in 10.0 mi NW 6.9 mph - N/A   Scattered Clouds
12:55 PM 75.2 °F - 69.8 °F 83% 30.02 in 10.0 mi Variable 4.6 mph - N/A   Overcast
1:15 PM 77.0 °F - 69.8 °F 78% 30.01 in 10.0 mi West 5.8 mph - N/A   Scattered Clouds
1:35 PM 77.0 °F - 69.8 °F 78% 30.01 in 10.0 mi West 5.8 mph - N/A   Partly Cloudy
1:55 PM 78.8 °F - 68.0 °F 69% 30.00 in 10.0 mi WNW 5.8 mph - N/A   Scattered Clouds
2:15 PM 78.8 °F - 69.8 °F 74% 29.99 in 10.0 mi WNW 5.8 mph - N/A   Mostly Cloudy
2:35 PM 78.8 °F - 69.8 °F 74% 29.99 in 10.0 mi NW 5.8 mph - N/A   Partly Cloudy
2:55 PM 78.8 °F - 68.0 °F 69% 29.99 in 10.0 mi West 4.6 mph - N/A   Clear
3:15 PM 78.8 °F - 68.0 °F 69% 29.98 in 10.0 mi WNW 4.6 mph - N/A   Clear
3:35 PM 77.0 °F - 69.8 °F 78% 29.98 in 10.0 mi NW 6.9 mph - N/A   Clear
3:55 PM 77.0 °F - 68.0 °F 74% 29.98 in 10.0 mi WNW 4.6 mph - N/A   Clear
4:15 PM 78.8 °F - 68.0 °F 69% 29.98 in 10.0 mi West 5.8 mph - N/A   Clear
4:35 PM 77.0 °F - 66.2 °F 69% 29.97 in 10.0 mi West 3.5 mph - N/A   Scattered Clouds
4:55 PM 77.0 °F - 68.0 °F 74% 29.96 in 10.0 mi WSW 4.6 mph - N/A   Partly Cloudy
5:15 PM 77.0 °F - 68.0 °F 74% 29.95 in 10.0 mi West 4.6 mph - N/A   Clear
5:35 PM 78.8 °F - 68.0 °F 69% 29.95 in 10.0 mi WNW 3.5 mph - N/A   Clear
5:55 PM 78.8 °F - 68.0 °F 69% 29.94 in 10.0 mi Calm Calm - N/A   Partly Cloudy
6:15 PM 78.8 °F - 68.0 °F 69% 29.94 in 10.0 mi West 3.5 mph - N/A   Partly Cloudy
6:35 PM 80.6 °F 83.2 °F 68.0 °F 65% 29.94 in 10.0 mi Calm Calm - N/A   Partly Cloudy
6:55 PM 78.8 °F - 68.0 °F 69% 29.95 in 10.0 mi NNW 3.5 mph - N/A   Scattered Clouds
7:15 PM 80.6 °F 83.2 °F 68.0 °F 65% 29.95 in 10.0 mi Calm Calm - N/A   Mostly Cloudy
7:35 PM 77.0 °F - 71.6 °F 83% 29.95 in 10.0 mi Calm Calm - N/A   Partly Cloudy
7:55 PM 73.4 °F - 66.2 °F 78% 29.95 in 10.0 mi North 5.8 mph - N/A   Mostly Cloudy
8:15 PM 73.4 °F - 64.4 °F 73% 29.95 in 10.0 mi Calm Calm - N/A   Scattered Clouds
8:35 PM 73.4 °F - 64.4 °F 73% 29.95 in 10.0 mi North 3.5 mph - N/A   Mostly Cloudy
8:55 PM 71.6 °F - 64.4 °F 78% 29.95 in 10.0 mi NW 4.6 mph - N/A   Scattered Clouds
9:15 PM 69.8 °F - 66.2 °F 88% 29.95 in 10.0 mi Calm Calm - N/A   Light Drizzle
9:35 PM 69.8 °F - 66.2 °F 88% 29.95 in 10.0 mi Calm Calm - N/A   Mostly Cloudy
9:55 PM 69.8 °F - 66.2 °F 88% 29.96 in 10.0 mi NNE 3.5 mph - N/A   Overcast
10:15 PM 68.0 °F - 66.2 °F 94% 29.97 in 10.0 mi Calm Calm - N/A   Scattered Clouds
10:35 PM 68.0 °F - 66.2 °F 94% 29.97 in 10.0 mi Calm Calm - N/A   Mostly Cloudy
10:55 PM 68.0 °F - 66.2 °F 94% 29.98 in 10.0 mi Calm Calm - N/A   Mostly Cloudy
11:15 PM 66.2 °F - 66.2 °F 100% 29.98 in 10.0 mi Calm Calm - N/A   Partly Cloudy
11:35 PM 66.2 °F - 66.2 °F 100% 29.98 in 10.0 mi Calm Calm - N/A   Clear
11:55 PM 66.2 °F - 64.4 °F 94% 29.98 in 10.0 mi Calm Calm - N/A   Clear